Volver al catálogo

USA 170

ActivoMilitarGEO
NORAD 27875·PAYLOAD·🇺🇸 United States

Lanzado Aug 29, 2003 desde Cape Canaveral Space Force Station

Loading…

TLE

ActualizadoSource: Space-Track

Época: Sep 14, 2026, 13:55 UTC

1 27875U 03040A   26257.57986770  .00000119  00000-0  00000+0 0  9997
2 27875  10.6864  47.0748 0001507 158.9126  20.4350  1.00270982 33897

Sigue USA 170 en tiempo real con AllMySat

Download on the App Store